Location: Newark
(28.1667°N, 17.3333°W)
Time: 09:55:14
(UTC+00:00)

Envisat - Visible Passes

Search period start: 18 February 2019 00:00
Search period end: 28 February 2019 00:00
Orbit: 764 x 766 km, 98.2° (Epoch: 17 February)

Date Brightness Start Highest point End Pass type
(mag) Time Alt. Az. Time Alt. Az. Time Alt. Az.
18 Feb 6.7 07:19:13 10° ENE 07:20:50 11° E 07:22:28 10° ESE visible
18 Feb 3.0 20:02:24 10° SSE 20:07:28 86° W 20:12:34 10° NNW visible
19 Feb 3.5 19:26:13 10° SE 19:30:51 37° ENE 19:35:30 10° N visible
19 Feb 5.7 21:06:35 10° SW 21:09:54 17° W 21:13:13 10° NW visible
20 Feb 4.2 20:28:11 10° S 20:33:01 44° W 20:37:51 10° NNW visible
21 Feb 2.9 19:51:15 10° SSE 19:56:17 73° ENE 20:01:21 10° N visible
22 Feb 5.4 20:54:40 10° SSW 20:58:37 23° W 21:02:36 10° NW visible
23 Feb 3.6 20:16:48 10° S 20:21:47 58° W 20:26:47 10° NNW visible
24 Feb 3.1 19:40:10 10° SSE 19:45:06 55° ENE 19:50:03 10° N visible
24 Feb 6.2 21:22:40 10° WSW 21:24:19 11° W 21:25:59 10° WNW visible
25 Feb 4.9 20:42:57 10° SSW 20:47:22 30° W 20:51:48 10° NW visible
26 Feb 3.1 20:05:31 10° S 20:10:35 78° W 20:15:40 10° NNW visible
27 Feb 3.4 19:29:13 10° SE 19:33:56 41° ENE 19:38:42 10° N visible
27 Feb 5.9 21:10:04 10° SW 21:13:02 16° W 21:16:01 10° WNW visible
